FW8870 Weather Reports


Display with metric or nautical units.
time (UTC)temp
F
wind
direction
speed
MPH
gust
MPH
rain 1hr
in
rain 24hr
in
rain mn
in
humidity
%
barometer
mb
20260508112943 50 338 0.0 0.0 0.00 0.00 0.00 99 1018.5
20260508112439 50 327 0.0 0.0 0.00 0.00 0.00 99 1018.5
20260508111936 50 338 0.0 0.0 0.00 0.00 0.00 99 1018.6
20260508111433 50 334 0.0 0.0 0.00 0.00 0.00 99 1018.6
20260508110930 50 309 0.0 0.0 0.00 0.00 0.00 99 1018.5
20260508110428 50 330 0.0 0.0 0.00 0.00 0.00 99 1018.6
20260508105927 50 325 0.0 0.0 0.00 0.00 0.00 99 1018.7
20260508105424 50 289 0.0 0.0 0.00 0.00 0.00 99 1018.6
20260508104921 50 331 0.0 0.0 0.00 0.00 0.00 99 1018.5
20260508104419 50 358 0.0 0.0 0.00 0.00 0.00 99 1018.5
20260508103915 51 299 0.0 0.0 0.00 0.00 0.00 99 1018.7
20260508103413 51 316 0.0 0.0 0.00 0.00 0.00 99 1018.5
20260508102909 51 321 0.0 0.0 0.00 0.00 0.00 99 1018.4
20260508102408 51 347 0.0 0.0 0.00 0.00 0.00 99 1018.3
20260508101905 52 349 0.0 0.0 0.00 0.00 0.00 99 1018.5
20260508101402 51 330 0.0 0.0 0.00 0.00 0.00 98 1018.4
20260508100859 52 329 0.0 0.0 0.00 0.00 0.00 97 1018.4
20260508100358 52 330 0.0 0.0 0.00 0.00 0.00 96 1018.3
20260508095853 53 325 0.0 0.0 0.00 0.00 0.00 95 1018.3
20260508095352 53 314 0.0 0.0 0.00 0.00 0.00 94 1017.9
20260508094848 54 309 0.0 0.0 0.00 0.00 0.00 93 1018.2
20260508094345 53 325 0.0 0.0 0.00 0.00 0.00 93 1018.1
20260508093842 54 324 0.0 0.0 0.00 0.00 0.00 93 1018.2
20260508093339 53 69 0.0 0.0 0.00 0.00 0.00 94 1018.1
20260508092836 53 330 0.0 0.0 0.00 0.00 0.00 95 1017.9
20260508092334 53 336 0.0 0.0 0.00 0.00 0.00 95 1017.9
20260508091832 53 341 0.0 0.0 0.00 0.00 0.00 94 1017.9
20260508091328 54 337 0.0 0.0 0.00 0.00 0.00 94 1018.0
20260508090826 53 334 0.0 0.0 0.00 0.00 0.00 96 1018.2
20260508090325 53 315 0.0 0.0 0.00 0.00 0.00 96 1018.1
20260508085820 53 323 0.0 0.0 0.00 0.00 0.00 96 1018.0
20260508085317 53 339 0.0 0.0 0.00 0.00 0.00 97 1017.9
20260508084814 53 339 0.0 0.0 0.00 0.00 0.00 96 1018.2
20260508084311 54 351 0.0 0.0 0.00 0.00 0.00 96 1018.2
20260508083808 54 350 0.0 0.0 0.00 0.00 0.00 96 1018.2
20260508083306 54 324 0.0 0.0 0.00 0.00 0.00 95 1018.3
20260508082805 54 340 0.0 0.0 0.00 0.00 0.00 95 1018.3
20260508082306 54 294 0.0 0.0 0.00 0.00 0.00 95 1018.3
20260508081801 54 338 0.0 0.0 0.00 0.00 0.00 95 1018.5
20260508081257 54 335 0.0 0.0 0.00 0.00 0.00 95 1018.2
20260508080754 54 334 0.0 0.0 0.00 0.00 0.00 95 1018.5
20260508080252 54 320 0.0 0.0 0.00 0.00 0.00 95 1018.4
20260508075748 54 320 0.0 0.0 0.00 0.00 0.00 94 1018.6
20260508075245 54 314 0.0 0.0 0.00 0.00 0.00 94 1018.4
20260508074743 54 316 0.0 0.0 0.00 0.00 0.00 93 1018.6
20260508074240 54 314 0.0 0.0 0.00 0.00 0.00 94 1018.3
20260508073737 54 315 0.0 0.0 0.00 0.00 0.00 94 1018.4
20260508073235 54 314 0.0 0.0 0.00 0.00 0.00 94 1018.6
20260508072731 54 321 0.0 0.0 0.00 0.00 0.00 93 1018.5
20260508072228 54 321 0.0 0.0 0.00 0.00 0.00 93 1018.6
20260508071725 54 321 0.0 0.0 0.00 0.00 0.00 93 1018.3
20260508071224 54 321 0.0 0.0 0.00 0.00 0.00 93 1018.6
20260508070721 54 322 0.0 0.0 0.00 0.00 0.00 93 1018.7
20260508070219 54 321 0.0 0.0 0.00 0.00 0.00 93 1018.5
20260508065716 54 322 0.0 0.0 0.00 0.00 0.00 92 1018.6
20260508065214 54 322 0.0 0.0 0.00 0.00 0.00 93 1018.6
20260508064711 55 322 0.0 0.0 0.00 0.00 0.00 92 1018.6
20260508064209 55 322 0.0 0.0 0.00 0.00 0.00 92 1018.5
20260508063707 55 323 0.0 0.0 0.00 0.00 0.00 92 1018.7
20260508063204 55 312 0.0 0.0 0.00 0.00 0.00 91 1018.7
20260508062701 55 328 0.0 0.0 0.00 0.00 0.00 91 1018.4
20260508062158 55 329 0.0 0.0 0.00 0.00 0.00 90 1018.4
20260508061655 55 320 0.0 0.0 0.00 0.00 0.00 90 1018.3
20260508061153 56 336 0.0 0.0 0.00 0.00 0.00 87 1018.5
20260508060649 56 337 0.0 0.0 0.00 0.00 0.00 87 1018.4
20260508060147 57 344 0.0 0.0 0.00 0.00 0.00 85 1018.3
20260508055642 57 347 0.0 0.0 0.00 0.00 0.00 83 1018.3
20260508055139 57 347 0.0 0.0 0.00 0.00 0.00 83 1018.5
20260508054636 57 331 0.0 0.0 0.00 0.00 0.00 82 1018.4
20260508054134 57 329 0.0 0.0 0.00 0.00 0.00 83 1018.5
20260508053630 57 340 0.0 0.0 0.00 0.00 0.00 82 1018.6
20260508053128 57 340 0.0 0.0 0.00 0.00 0.00 84 1018.4
20260508052625 57 336 0.0 0.0 0.00 0.00 0.00 88 1018.6
20260508052122 57 323 0.0 0.0 0.00 0.00 0.00 86 1018.5
20260508051618 57 2 0.0 0.0 0.00 0.00 0.00 86 1018.6
20260508051113 58 321 0.0 0.0 0.00 0.00 0.00 84 1018.6
20260508050610 58 331 0.0 0.0 0.00 0.00 0.00 81 1018.4
20260508050108 58 301 0.0 0.0 0.00 0.00 0.00 80 1018.7
20260508045604 58 316 0.0 0.0 0.00 0.00 0.00 82 1018.7
20260508045102 57 311 0.0 0.0 0.00 0.00 0.00 84 1018.8
20260508044559 58 339 0.0 0.0 0.00 0.00 0.00 87 1018.6
20260508044055 58 0 0.0 0.0 0.00 0.00 0.00 81 1018.6
20260508043551 58 319 0.0 0.0 0.00 0.00 0.00 82 1018.6
20260508043049 59 309 0.0 0.0 0.00 0.00 0.00 81 1018.8
20260508042545 59 328 0.0 0.0 0.00 0.00 0.00 81 1018.8
20260508042043 59 306 0.0 0.0 0.00 0.00 0.00 81 1018.5
20260508041539 59 323 0.0 0.0 0.00 0.00 0.00 79 1018.7
20260508041035 59 340 0.0 0.0 0.00 0.00 0.00 81 1018.7
20260508040532 59 321 0.0 0.0 0.00 0.00 0.00 80 1018.7
20260508040030 59 344 0.0 0.0 0.00 0.00 0.00 82 1018.7
20260508035527 59 338 0.0 0.0 0.00 0.00 0.00 83 1018.5
20260508035024 59 343 0.0 0.0 0.00 0.00 0.00 83 1018.5
20260508034521 59 338 0.0 0.0 0.00 0.00 0.00 88 1018.5
20260508034018 59 338 0.0 0.0 0.00 0.00 0.00 86 1018.4
20260508033516 59 338 0.0 0.0 0.00 0.00 0.00 87 1018.5
20260508033014 59 338 0.0 0.0 0.00 0.00 0.00 85 1018.4
20260508032510 60 334 0.0 0.0 0.00 0.00 0.00 83 1018.4
20260508032008 60 333 0.0 0.0 0.00 0.00 0.00 79 1018.6
20260508031505 60 334 0.0 0.0 0.00 0.00 0.00 77 1018.5
20260508030959 61 327 0.0 0.0 0.00 0.00 0.00 77 1018.6
20260508030457 61 319 0.0 0.0 0.00 0.00 0.00 77 1018.8
20260508025955 61 320 0.0 0.0 0.00 0.00 0.00 77 1018.7
20260508025451 60 339 0.0 0.0 0.00 0.00 0.00 79 1018.7
20260508024948 60 337 0.0 0.0 0.00 0.00 0.00 78 1018.6
20260508024444 61 318 0.0 0.0 0.00 0.00 0.00 82 1018.5
20260508023941 61 318 0.0 0.0 0.00 0.00 0.00 81 1018.6
20260508023438 61 318 0.0 0.0 0.00 0.00 0.00 83 1018.5
20260508022935 61 318 0.0 0.0 0.00 0.00 0.00 81 1018.4
20260508022431 61 318 0.0 0.0 0.00 0.00 0.00 80 1018.7
20260508021927 61 318 0.0 0.0 0.00 0.00 0.00 81 1018.5
20260508021424 61 318 0.0 0.0 0.00 0.00 0.00 81 1018.6
20260508020919 62 318 0.0 0.0 0.00 0.00 0.00 79 1018.6
20260508020418 62 317 0.0 0.0 0.00 0.00 0.00 76 1018.6
20260508015914 61 336 0.0 0.0 0.00 0.00 0.00 75 1018.8
20260508015413 62 354 0.0 0.0 0.00 0.00 0.00 72 1018.7
20260508014908 62 331 0.0 0.0 0.00 0.00 0.00 73 1018.9
20260508014406 62 340 0.0 0.0 0.00 0.00 0.00 73 1018.9
20260508013902 61 305 0.0 0.0 0.00 0.00 0.00 73 1018.9
20260508013357 62 289 0.0 0.0 0.00 0.00 0.00 75 1019.0
20260508012855 61 326 0.0 0.0 0.00 0.00 0.00 74 1019.0
20260508012352 61 303 0.0 0.0 0.00 0.00 0.00 75 1018.9
20260508011850 61 315 0.0 0.0 0.00 0.00 0.00 73 1019.3
20260508011348 62 302 0.0 0.0 0.00 0.00 0.00 73 1019.1
20260508010844 62 339 0.0 0.0 0.00 0.00 0.00 75 1019.4
20260508010342 62 324 0.0 0.0 0.00 0.00 0.00 74 1019.2
20260508005839 62 320 0.0 0.0 0.00 0.00 0.00 75 1019.2
20260508005335 62 335 0.0 0.0 0.00 0.00 0.00 73 1019.2
20260508004831 62 326 0.0 0.0 0.00 0.00 0.00 77 1019.2
20260508004328 62 336 0.0 0.0 0.00 0.00 0.00 75 1019.3
20260508003824 62 347 0.0 0.0 0.00 0.00 0.00 76 1019.3
20260508003322 62 326 0.0 0.0 0.00 0.00 0.00 73 1019.3
20260508002819 62 343 0.0 0.0 0.00 0.00 0.00 74 1019.1
20260508002315 62 333 0.0 0.0 0.00 0.00 0.00 74 1019.2
20260508001811 63 337 0.0 0.0 0.00 0.00 0.00 75 1019.3
20260508001308 63 268 1.0 3.0 0.00 0.00 0.00 74 1019.1
20260508000804 63 314 0.0 0.0 0.00 0.00 0.00 74 1019.1
20260508000301 63 308 0.0 0.0 0.00 0.00 0.00 75 1019.0
20260507235757 64 331 0.0 0.0 0.00 0.00 0.00 74 1019.0
20260507235255 64 331 0.0 0.0 0.00 0.00 0.00 77 1019.2
20260507234751 64 316 0.0 0.0 0.00 0.00 0.00 75 1019.2
20260507234248 64 59 0.0 0.0 0.00 0.00 0.00 74 1019.0
20260507233744 65 334 0.0 0.0 0.00 0.00 0.00 72 1019.0
20260507233243 65 317 0.0 0.0 0.00 0.00 0.00 72 1019.2
20260507232740 65 330 0.0 0.0 0.00 0.00 0.00 71 1018.9
20260507232236 64 321 0.0 0.0 0.00 0.00 0.00 70 1019.1
20260507231732 64 349 0.0 0.0 0.00 0.00 0.00 70 1019.2
20260507231230 65 348 0.0 0.0 0.00 0.00 0.00 69 1019.1
20260507230727 64 354 0.0 0.0 0.00 0.00 0.00 72 1019.3
20260507230224 64 354 0.0 0.0 0.00 0.00 0.00 69 1019.3
20260507225723 64 169 0.0 0.0 0.00 0.00 0.00 73 1019.5
20260507225220 64 309 0.0 0.0 0.00 0.00 0.00 72 1019.4
20260507224716 64 347 0.0 0.0 0.00 0.00 0.00 72 1019.6
20260507224213 64 200 0.0 0.0 0.00 0.00 0.00 74 1019.4
20260507223709 64 134 0.0 0.0 0.00 0.00 0.00 69 1019.5
20260507223206 65 16 0.0 0.0 0.00 0.00 0.00 70 1019.6
20260507222703 65 287 0.0 0.0 0.00 0.00 0.00 71 1019.8
20260507222159 65 335 0.0 0.0 0.00 0.00 0.00 71 1019.7
20260507221656 64 15 0.0 0.0 0.00 0.00 0.00 69 1019.7
20260507221152 65 349 0.0 0.0 0.00 0.00 0.00 71 1019.6
20260507220649 64 324 0.0 0.0 0.00 0.00 0.00 69 1020.0
20260507220147 65 169 2.0 3.0 0.00 0.00 0.00 68 1019.9
20260507215643 66 309 0.0 0.0 0.00 0.00 0.00 68 1020.0
20260507215140 66 322 0.0 0.0 0.00 0.00 0.00 66 1020.0
20260507214637 67 288 0.0 0.0 0.00 0.00 0.00 66 1020.2
20260507214134 66 270 0.0 0.0 0.00 0.00 0.00 66 1020.0
20260507213630 66 280 0.0 0.0 0.00 0.00 0.00 68 1020.3
20260507213128 64 323 0.0 0.0 0.00 0.00 0.00 67 1020.1
20260507212623 64 3 0.0 0.0 0.00 0.00 0.00 67 1020.5
20260507212120 66 295 0.0 0.0 0.00 0.00 0.00 67 1020.3
20260507211617 65 280 0.0 0.0 0.00 0.00 0.00 74 1020.6
20260507211113 63 341 0.0 0.0 0.00 0.00 0.00 73 1020.5
20260507210611 63 138 0.0 0.0 0.00 0.00 0.00 73 1020.8
20260507210107 63 19 0.0 0.0 0.00 0.00 0.00 73 1020.7
20260507205603 63 297 0.0 0.0 0.00 0.00 0.00 72 1020.9
20260507205100 63 337 0.0 0.0 0.00 0.00 0.00 74 1020.9
20260507204556 63 200 0.0 0.0 0.00 0.00 0.00 71 1020.8
20260507204054 63 332 0.0 0.0 0.00 0.00 0.00 73 1021.2
20260507203551 62 338 0.0 0.0 0.00 0.00 0.00 76 1021.3
20260507203049 62 350 0.0 0.0 0.00 0.00 0.00 71 1021.2
20260507202544 62 115 0.0 0.0 0.00 0.00 0.00 73 1021.0
20260507202041 62 322 0.0 0.0 0.00 0.00 0.00 73 1021.2
20260507201536 63 328 0.0 0.0 0.00 0.00 0.00 70 1021.3
20260507201033 63 191 0.0 0.0 0.00 0.00 0.00 68 1021.0
20260507200529 62 317 0.0 0.0 0.00 0.00 0.00 73 1021.4
20260507200025 61 309 0.0 0.0 0.00 0.00 0.00 78 1021.6
20260507195522 61 354 0.0 0.0 0.00 0.00 0.00 73 1021.3
20260507195020 60 340 0.0 0.0 0.00 0.00 0.00 73 1021.7
20260507194516 60 312 0.0 0.0 0.00 0.00 0.00 73 1021.5
20260507194012 60 314 0.0 0.0 0.00 0.00 0.00 75 1021.5
20260507193509 60 331 0.0 0.0 0.00 0.00 0.00 78 1021.4
20260507193006 60 2 0.0 0.0 0.00 0.00 0.00 76 1021.7
20260507192502 60 70 0.0 0.0 0.00 0.00 0.00 76 1021.7
20260507191959 60 334 0.0 0.0 0.00 0.00 0.00 77 1021.8
20260507191500 59 3 0.0 0.0 0.00 0.00 0.00 76 1021.7
20260507190957 60 338 0.0 0.0 0.00 0.00 0.00 74 1021.7
20260507190454 60 314 0.0 0.0 0.00 0.00 0.00 75 1021.8
20260507185953 60 358 0.0 0.0 0.00 0.00 0.00 76 1021.8
20260507185450 60 329 0.0 0.0 0.00 0.00 0.00 76 1021.8
20260507184947 59 330 0.0 0.0 0.00 0.00 0.00 76 1021.8
20260507184445 59 333 0.0 0.0 0.00 0.00 0.00 76 1022.0
20260507183943 60 13 0.0 0.0 0.00 0.00 0.00 73 1022.0
20260507183439 60 336 0.0 0.0 0.00 0.00 0.00 78 1021.7
20260507182936 60 344 0.0 0.0 0.00 0.00 0.00 76 1022.0
20260507182432 60 329 0.0 0.0 0.00 0.00 0.00 79 1022.0
20260507181928 59 332 0.0 0.0 0.00 0.00 0.00 78 1022.2
20260507181424 59 313 0.0 0.0 0.00 0.00 0.00 75 1022.1
20260507180921 60 305 0.0 0.0 0.00 0.00 0.00 76 1022.2
20260507180418 60 326 0.0 0.0 0.00 0.00 0.00 78 1022.0
20260507175914 59 333 0.0 0.0 0.00 0.00 0.00 78 1022.1
20260507175411 59 341 0.0 0.0 0.00 0.00 0.00 78 1022.2
20260507174909 60 331 0.0 0.0 0.00 0.00 0.00 74 1022.4
20260507174406 60 340 0.0 0.0 0.00 0.00 0.00 77 1022.2
20260507173903 59 305 0.0 0.0 0.00 0.00 0.00 78 1022.3
20260507173400 59 310 0.0 0.0 0.00 0.00 0.00 79 1022.3
20260507172856 60 347 0.0 0.0 0.00 0.00 0.00 76 1022.2
20260507172353 60 303 0.0 0.0 0.00 0.00 0.00 77 1022.3
20260507171849 60 7 0.0 0.0 0.00 0.00 0.00 78 1022.1
20260507171346 60 355 0.0 0.0 0.00 0.00 0.00 77 1022.2
20260507170843 59 341 0.0 0.0 0.00 0.00 0.00 81 1022.2
20260507170339 58 289 0.0 0.0 0.00 0.00 0.00 80 1022.4
20260507165835 57 324 0.0 0.0 0.00 0.00 0.00 82 1022.2
20260507165331 57 350 0.0 0.0 0.00 0.00 0.00 82 1022.3
20260507164828 57 280 0.0 0.0 0.00 0.00 0.00 83 1022.5
20260507164325 56 334 0.0 0.0 0.00 0.00 0.00 83 1022.4
20260507163822 56 344 0.0 0.0 0.00 0.00 0.00 82 1022.6
20260507163320 56 306 0.0 0.0 0.00 0.00 0.00 82 1022.6
20260507162815 56 359 0.0 0.0 0.00 0.00 0.00 83 1022.4
20260507162311 56 329 0.0 0.0 0.00 0.00 0.00 85 1022.5
20260507161809 56 337 0.0 0.0 0.00 0.00 0.00 84 1022.5
20260507161306 56 314 0.0 0.0 0.00 0.00 0.00 84 1022.7
20260507160802 56 335 0.0 0.0 0.00 0.00 0.00 86 1022.5
20260507160258 56 333 0.0 0.0 0.00 0.00 0.00 86 1022.5
20260507155754 56 316 0.0 0.0 0.00 0.00 0.00 87 1022.6
20260507155250 55 324 0.0 0.0 0.00 0.00 0.00 88 1022.8
20260507154746 55 330 0.0 0.0 0.00 0.00 0.00 89 1022.5
20260507154244 55 342 0.0 0.0 0.00 0.00 0.00 89 1022.6
20260507153741 55 359 0.0 0.0 0.00 0.00 0.00 89 1022.8
20260507153237 54 336 0.0 0.0 0.00 0.00 0.00 89 1022.8
20260507152733 54 330 0.0 0.0 0.00 0.00 0.00 89 1022.9
20260507152230 54 344 0.0 0.0 0.00 0.00 0.00 88 1022.8
20260507151726 54 316 0.0 0.0 0.00 0.00 0.00 88 1022.8
20260507151223 54 324 0.0 0.0 0.00 0.00 0.00 89 1022.8
20260507150720 54 321 0.0 0.0 0.00 0.00 0.00 90 1023.0
20260507150217 54 322 0.0 0.0 0.00 0.00 0.00 90 1022.8
20260507145712 54 336 0.0 0.0 0.00 0.00 0.00 89 1022.9
20260507145209 54 323 0.0 0.0 0.00 0.00 0.00 90 1022.7
20260507144706 54 323 0.0 0.0 0.00 0.00 0.00 89 1022.8
20260507144204 54 323 0.0 0.0 0.00 0.00 0.00 89 1022.9
20260507143700 54 312 0.0 0.0 0.00 0.00 0.00 91 1022.9
20260507143157 54 311 0.0 0.0 0.00 0.00 0.00 91 1022.9
20260507142653 53 312 0.0 0.0 0.00 0.00 0.00 91 1022.9
20260507142150 53 312 0.0 0.0 0.00 0.00 0.00 91 1022.9
20260507141646 53 312 0.0 0.0 0.00 0.00 0.00 90 1022.7
20260507141143 53 324 0.0 0.0 0.00 0.00 0.00 90 1023.0
20260507140639 53 321 0.0 0.0 0.00 0.00 0.00 90 1022.9
20260507140137 53 334 0.0 0.0 0.00 0.00 0.00 90 1022.9
20260507135634 53 304 0.0 0.0 0.00 0.00 0.00 90 1022.8
20260507135131 53 298 0.0 0.0 0.00 0.00 0.00 90 1022.8
20260507134627 53 322 0.0 0.0 0.00 0.00 0.00 91 1022.8
20260507134124 53 286 0.0 0.0 0.00 0.00 0.00 91 1022.6
20260507133620 52 308 0.0 0.0 0.00 0.00 0.00 91 1022.5
20260507133117 52 339 0.0 0.0 0.00 0.00 0.00 93 1022.6
20260507132614 52 323 0.0 0.0 0.00 0.00 0.00 91 1022.6
20260507132110 52 321 0.0 0.0 0.00 0.00 0.00 93 1022.6
20260507131607 52 289 0.0 0.0 0.00 0.00 0.00 94 1022.6
20260507131105 52 276 0.0 0.0 0.00 0.00 0.00 94 1022.5
20260507130601 52 326 0.0 0.0 0.00 0.00 0.00 94 1022.6
20260507130100 51 321 0.0 0.0 0.00 0.00 0.00 96 1022.6
20260507125558 51 322 0.0 0.0 0.00 0.00 0.00 96 1022.7
20260507125055 52 321 0.0 0.0 0.00 0.00 0.00 97 1022.7
20260507124551 51 322 0.0 0.0 0.00 0.00 0.00 96 1022.8
20260507124049 52 321 0.0 0.0 0.00 0.00 0.00 96 1022.8
20260507123547 52 321 0.0 0.0 0.00 0.00 0.00 95 1022.7
20260507123044 52 321 0.0 0.0 0.00 0.00 0.00 94 1023.0
20260507122539 52 321 0.0 0.0 0.00 0.00 0.00 94 1023.1
20260507122035 52 321 0.0 0.0 0.00 0.00 0.00 94 1023.0
20260507121531 52 321 0.0 0.0 0.00 0.00 0.00 94 1023.0
20260507121027 52 322 0.0 0.0 0.00 0.00 0.00 93 1022.9
20260507120523 52 322 0.0 0.0 0.00 0.00 0.00 92 1022.9
20260507120020 52 322 0.0 0.0 0.00 0.00 0.00 93 1023.1
20260507115516 52 322 0.0 0.0 0.00 0.00 0.00 93 1023.0
20260507115012 53 321 0.0 0.0 0.00 0.00 0.00 91 1023.2
20260507114508 53 320 0.0 0.0 0.00 0.00 0.00 89 1022.9
20260507114006 53 320 0.0 0.0 0.00 0.00 0.00 89 1022.9
20260507113503 53 342 0.0 0.0 0.00 0.00 0.00 88 1023.0